Date,TemperatureHighF,TemperatureAvgF,TemperatureLowF,DewpointHighF,DewpointAvgF,DewpointLowF,HumidityHigh,HumidityAvg,HumidityLow,PressureMaxIn,PressureMinIn,WindSpeedMaxMPH,WindSpeedAvgMPH,GustSpeedMaxMPH,PrecipitationSumIn
2013-1-1,50.5,41.3,36.1,41.5,35.1,31.4,86,79,65,29.87,29.25,11,5,18,0.00
2013-1-2,54.0,47.9,41.4,50.5,43.6,35.0,90,85,78,29.98,29.88,13,5,21,0.00
2013-1-3,54.3,53.0,51.3,49.6,47.4,44.1,87,81,76,30.37,29.98,14,7,24,0.00
2013-1-4,55.0,52.2,49.6,48.9,46.4,43.1,85,81,73,30.44,30.35,14,7,23,0.00
2013-1-5,53.2,51.8,48.6,47.5,45.3,42.7,83,79,74,30.43,30.25,11,6,19,0.00
2013-1-6,50.5,46.4,41.9,46.4,42.3,37.5,90,86,81,30.41,30.17,7,2,11,0.00
2013-1-7,50.5,49.4,48.4,47.7,46.2,44.2,92,89,82,30.17,29.99,6,1,11,0.00
2013-1-8,54.3,48.7,41.7,52.9,45.7,37.8,95,89,82,30.13,29.95,15,3,24,0.00
2013-1-9,50.9,42.3,37.6,46.9,38.4,34.0,93,86,78,30.13,30.03,8,3,13,0.00
2013-1-10,44.8,39.6,34.2,42.4,36.7,31.0,92,89,86,30.03,29.93,4,1,8,0.00
2013-1-11,43.9,41.1,38.5,41.7,38.6,35.8,92,91,89,30.01,29.96,4,0,8,0.00
2013-1-12,44.2,39.3,35.2,38.5,34.6,29.7,90,83,77,30.12,29.94,5,2,9,0.00
2013-1-13,38.8,37.4,36.0,35.6,33.1,31.2,88,85,80,30.13,29.96,7,1,10,0.00
2013-1-14,44.6,37.9,33.6,40.1,33.8,28.1,91,85,78,29.96,29.70,4,2,9,0.00
2013-1-15,43.2,35.4,29.5,38.7,30.9,25.3,88,84,77,29.91,29.79,4,1,7,0.00
2013-1-16,36.9,32.5,27.0,31.7,27.3,23.1,88,81,73,29.97,29.84,4,1,6,0.00
2013-1-17,39.0,35.9,34.7,28.3,26.6,24.7,73,69,58,29.99,29.86,11,3,17,0.00
2013-1-18,41.7,37.9,35.6,32.1,29.3,26.8,82,71,62,29.70,29.58,19,9,28,0.00
2013-1-19,40.6,37.9,32.0,35.3,29.0,-99.9,84,75,65,29.73,29.59,103,7,157,0.00
2013-1-20,37.9,37.1,35.8,28.5,27.0,25.3,71,67,62,29.70,29.55,13,5,20,0.00
2013-1-21,60.6,39.6,37.0,59.5,31.5,28.1,96,73,67,29.54,29.52,8,6,104,0.00
2013-1-22,39.4,38.5,36.9,35.5,34.7,32.8,87,86,83,29.84,29.62,14,6,23,0.00
2013-1-23,37.9,37.1,36.3,33.6,32.9,32.0,86,85,84,29.85,29.83,4,1,10,0.00
2013-1-24,40.5,37.3,34.9,37.8,33.0,29.9,90,84,73,30.05,29.96,6,2,10,0.00
2013-1-25,38.7,37.3,35.1,34.8,31.6,29.2,88,80,71,29.95,29.35,7,3,11,0.00
2013-1-26,48.0,40.7,35.6,41.7,35.8,32.2,89,83,72,29.51,28.95,10,4,20,0.00
2013-1-27,50.2,44.1,40.3,46.0,38.8,34.8,87,81,71,29.16,28.72,21,10,27,0.00
2013-1-28,48.2,44.2,40.5,43.6,37.8,34.5,85,78,69,29.29,28.84,20,10,34,0.00
2013-1-29,52.5,47.3,45.1,50.0,41.3,35.5,91,80,64,29.28,28.91,27,9,45,0.00
2013-1-30,50.0,45.4,40.3,41.1,36.0,32.1,84,70,59,29.58,29.05,20,12,32,0.00
2013-1-31,46.0,42.6,41.2,42.7,37.6,33.0,88,82,71,29.60,29.18,14,5,25,0.00